Showing default

KINEIS-4C, 63301

Orbit data source: Space-Track

KINEIS-4C, 63301 is a French payload satellite in SSO that was launched on Tue, 18 Mar 2025 UTC via an ELECTRON launch vehicle from the Rocket Lab Launch Complex (RLLC). Payload-class satellites include a variety of spacecraft equipped with specific instruments for various scientific and technological missions. These include communications satellites like Starlink; space stations such as the ISS; scientific satellites like the Hubble; Earth observation satellites from companies like Planet Labs, Umbra, and HawkEye 360; GPS; miniature CubeSats for education and research; and military/defense satellites.

Loading next visibility...
Identifier
63301, 2025-056B
Orbit
SSO
Country
Flag of FRFR
Related business
Manufacturer
KINEIS
Mission
Operational Commercial Communications
Bus & Motor
CUBESAT 16U, Unknown motor
Mass
28 kg wet, 28 kg dry
Launch date (UTC)
2025-03-18 (6 months ago)
Launch vehicle
ELECTRON
Launch site
Rocket Lab Launch Complex (RLLC)
Object type
Payload
Rocket body
Debris
Shape & HBR
Box + 2 Pan + 1 Ant, 0.8 m
Radar Cross Section
0.229 m², Medium (>0.1 m² and < 1m²)

Expand to show TLE details & history
Last TLE update: 9 hours ago

TLE from 9 hours ago
0 KINEIS-4C
1 63301U 25056B   25260.33392997  .00002075  00000-0  33561-3 0  9996
2 63301  97.9922  24.5571 0002457 120.8166 239.3283 14.72351201 26980
Epoch: 2025-09-17T08:00Z
TLE epoch observation values (Epoch: 2025-09-17T08:00:51.549Z)
Latitude
-0.00007°
Longitude
-92.16905°
Altitude
657.462 km
Speed
7.528 km/s
True Right ascension
01h 38m 13s
True Declination
0° 00' 00"
Sunlit
Object was in full shadow at epoch
Visualization orbit readout
Latitude
Unknown
Longitude
Unknown
Altitude
Unknown
Speed
Unknown
Apparent Right ascension
Unknown
Apparent Declination
Unknown
Sunlit
N/A
Visualization observer readout
Local Sidereal Time
09:18:51
Azimuth
Unknown
Elevation
Unknown
Doppler factor
Unknown
Orbital elements
Apogee altitude
652.354 km
Perigee altitude
648.9 km
Semi-major axis
7,028.764 km
Eccentricity
0.00025
Inclination
97.9922°
RAAN
24.5571°
Arg. of periapsis
120.8166°
True anomaly
239.30409°
Mean anomaly
239.3283°
Eccentric anomaly
239.31619°
Mean motion
3.68319 °/min
Orbital period
97.74 mins
BSTAR
0.00033561
Loading maneuver chart data...
Computing Atmospheric mass density...
Loading historical data...
Loading historical data...
Loading historical data...
Loading historical data...
Loading historical data...
Loading historical data...
Loading historical data...

Documentation

Showing up to 5 results
|